When you browse on this site, cookies collect data to enhance your experience and personalize the content and advertising you see.
Visit our Privacy Policy to learn more. By continuing to use the site, you agree to this use of cookies and data.
  • In Portugal
  • List of Countries
  • For 7 days
  • Water Temperature
  • Weather Map
  • Weather Widgets
  • user-avatar
    Login

    Hourly Weather Sumgayit

    Today, 22 August, Thursday

    Time Temperature Precipitation Wind Pressure Humidity
    00:00 +27°C° 0 mm 1 mps 738 mmHg 39%
    01:00 +27°C° 0 mm 1 mps 738 mmHg 41%
    02:00 +26°C° 0 mm 1 mps 738 mmHg 44%
    03:00 +23°C° 0 mm 0 mps 737 mmHg 47%
    04:00 +24°C° 0 mm 0 mps 737 mmHg 46%
    05:00 +26°C° 0 mm 1 mps 738 mmHg 44%
    06:00 +27°C° 0 mm 1 mps 738 mmHg 43%
    07:00 +29°C° 0 mm 1 mps 738 mmHg 36%
    08:00 +31°C° 0 mm 2 mps 738 mmHg 29%
    09:00 +34°C° 0 mm 2 mps 738 mmHg 22%
    10:00 +35°C° 0 mm 3 mps 738 mmHg 21%
    11:00 +36°C° 0 mm 4 mps 738 mmHg 20%
    12:00 +37°C° 0 mm 5 mps 737 mmHg 19%
    13:00 +37°C° 0 mm 4 mps 737 mmHg 18%
    14:00 +37°C° 0 mm 4 mps 737 mmHg 18%
    15:00 +37°C° 0 mm 4 mps 737 mmHg 18%
    16:00 +36°C° 0 mm 4 mps 737 mmHg 19%
    17:00 +36°C° 0 mm 3 mps 737 mmHg 20%
    18:00 +35°C° 0 mm 2 mps 736 mmHg 21%
    19:00 +32°C° 0 mm 2 mps 737 mmHg 24%
    20:00 +31°C° 0 mm 1 mps 737 mmHg 27%
    21:00 +27°C° 0 mm 0 mps 737 mmHg 30%
    22:00 +27°C° 0 mm 0 mps 737 mmHg 30%
    23:00 +26°C° 0 mm 0 mps 737 mmHg 31%

    Tomorrow, 23 August, Friday

    Time Temperature Precipitation Wind Pressure Humidity
    00:00 +26°C° 0 mm 0 mps 737 mmHg 31%
    01:00 +25°C° 0 mm 0 mps 737 mmHg 32%
    02:00 +25°C° 0 mm 0 mps 737 mmHg 33%
    03:00 +24°C° 0 mm 0 mps 737 mmHg 34%
    04:00 +25°C° 0 mm 0 mps 737 mmHg 33%
    05:00 +27°C° 0 mm 1 mps 737 mmHg 31%
    06:00 +28°C° 0 mm 1 mps 737 mmHg 29%
    07:00 +30°C° 0 mm 1 mps 738 mmHg 26%
    08:00 +33°C° 0 mm 1 mps 738 mmHg 22%
    09:00 +35°C° 0 mm 1 mps 738 mmHg 18%
    10:00 +37°C° 0 mm 2 mps 738 mmHg 17%
    11:00 +38°C° 0 mm 3 mps 738 mmHg 16%
    12:00 +40°C° 0 mm 4 mps 738 mmHg 15%
    13:00 +40°C° 0 mm 5 mps 738 mmHg 15%
    14:00 +40°C° 0 mm 5 mps 738 mmHg 15%
    15:00 +40°C° 0 mm 6 mps 737 mmHg 15%
    16:00 +39°C° 0 mm 5 mps 737 mmHg 17%
    17:00 +37°C° 0 mm 4 mps 737 mmHg 20%
    18:00 +35°C° 0 mm 3 mps 737 mmHg 22%
    19:00 +34°C° 0 mm 2 mps 737 mmHg 24%
    20:00 +32°C° 0 mm 2 mps 737 mmHg 26%
    21:00 +31°C° 0 mm 2 mps 737 mmHg 28%
    22:00 +30°C° 0 mm 1 mps 737 mmHg 30%
    23:00 +29°C° 0 mm 1 mps 737 mmHg 33%

    Day after tomorrow, 24 August, Saturday

    Time Temperature Precipitation Wind Pressure Humidity
    00:00 +28°C° 0 mm 1 mps 737 mmHg 35%
    01:00 +28°C° 0 mm 1 mps 737 mmHg 35%
    02:00 +28°C° 0 mm 1 mps 737 mmHg 34%
    03:00 +28°C° 0 mm 1 mps 737 mmHg 34%
    04:00 +28°C° 0 mm 2 mps 737 mmHg 32%
    05:00 +29°C° 0 mm 2 mps 737 mmHg 31%
    06:00 +29°C° 0 mm 2 mps 737 mmHg 30%
    07:00 +31°C° 0 mm 3 mps 737 mmHg 29%
    08:00 +34°C° 0 mm 3 mps 738 mmHg 29%
    09:00 +36°C° 0 mm 4 mps 738 mmHg 28%
    10:00 +36°C° 0 mm 5 mps 738 mmHg 27%
    11:00 +37°C° 0 mm 5 mps 738 mmHg 26%
    12:00 +39°C° 0 mm 6 mps 738 mmHg 24%
    13:00 +39°C° 0 mm 6 mps 738 mmHg 24%
    14:00 +39°C° 0 mm 6 mps 737 mmHg 24%
    15:00 +39°C° 0 mm 6 mps 737 mmHg 24%
    16:00 +37°C° 0 mm 5 mps 737 mmHg 24%
    17:00 +35°C° 0 mm 4 mps 737 mmHg 25%
    18:00 +34°C° 0 mm 3 mps 737 mmHg 26%
    19:00 +33°C° 0 mm 3 mps 738 mmHg 28%
    20:00 +32°C° 0 mm 2 mps 738 mmHg 29%
    21:00 +31°C° 0 mm 2 mps 738 mmHg 31%
    22:00 +30°C° 0 mm 2 mps 738 mmHg 32%
    23:00 +29°C° 0 mm 2 mps 738 mmHg 32%

    25 August, Sunday

    Time Temperature Precipitation Wind Pressure Humidity
    00:00 +29°C° 0 mm 2 mps 738 mmHg 33%
    01:00 +29°C° 0 mm 3 mps 738 mmHg 33%
    02:00 +28°C° 0 mm 3 mps 738 mmHg 33%
    03:00 +28°C° 0 mm 4 mps 738 mmHg 33%
    04:00 +28°C° 0 mm 3 mps 738 mmHg 35%
    05:00 +28°C° 0 mm 3 mps 738 mmHg 37%
    06:00 +28°C° 0 mm 2 mps 738 mmHg 39%
    07:00 +29°C° 0 mm 3 mps 738 mmHg 35%
    08:00 +31°C° 0 mm 3 mps 739 mmHg 31%
    09:00 +34°C° 0 mm 3 mps 739 mmHg 28%
    10:00 +35°C° 0 mm 4 mps 739 mmHg 24%
    11:00 +36°C° 0 mm 4 mps 739 mmHg 21%
    12:00 +37°C° 0 mm 5 mps 739 mmHg 18%
    13:00 +37°C° 0 mm 5 mps 738 mmHg 18%
    14:00 +36°C° 0 mm 5 mps 738 mmHg 18%
    15:00 +36°C° 0 mm 5 mps 738 mmHg 18%
    16:00 +35°C° 0 mm 5 mps 738 mmHg 19%
    17:00 +34°C° 0 mm 4 mps 738 mmHg 21%
    18:00 +33°C° 0 mm 4 mps 738 mmHg 22%
    19:00 +31°C° 0 mm 3 mps 738 mmHg 25%
    20:00 +29°C° 0 mm 2 mps 738 mmHg 28%
    21:00 +28°C° 0 mm 1 mps 738 mmHg 31%
    22:00 +27°C° 0 mm 1 mps 738 mmHg 32%
    23:00 +27°C° 0 mm 1 mps 738 mmHg 33%

    26 August, Monday

    Time Temperature Precipitation Wind Pressure Humidity
    00:00 +26°C° 0 mm 1 mps 738 mmHg 34%
    01:00 +26°C° 0 mm 1 mps 737 mmHg 35%
    02:00 +25°C° 0 mm 1 mps 737 mmHg 35%
    03:00 +25°C° 0 mm 1 mps 737 mmHg 36%
    04:00 +25°C° 0 mm 1 mps 737 mmHg 33%
    05:00 +26°C° 0 mm 1 mps 737 mmHg 31%
    06:00 +27°C° 0 mm 1 mps 737 mmHg 29%
    07:00 +28°C° 0 mm 1 mps 737 mmHg 25%
    08:00 +30°C° 0 mm 1 mps 738 mmHg 21%
    09:00 +32°C° 0 mm 1 mps 738 mmHg 18%
    10:00 +33°C° 0 mm 1 mps 738 mmHg 17%
    11:00 +35°C° 0 mm 2 mps 738 mmHg 15%
    12:00 +36°C° 0 mm 2 mps 738 mmHg 14%
    13:00 +36°C° 0 mm 4 mps 738 mmHg 17%
    14:00 +35°C° 0 mm 5 mps 737 mmHg 20%
    15:00 +35°C° 0 mm 7 mps 737 mmHg 22%
    16:00 +33°C° 0 mm 8 mps 737 mmHg 24%
    17:00 +32°C° 0 mm 9 mps 737 mmHg 25%
    18:00 +31°C° 0 mm 9 mps 737 mmHg 27%
    19:00 +31°C° 0 mm 9 mps 738 mmHg 28%
    20:00 +29°C° 0 mm 8 mps 739 mmHg 29%
    21:00 +29°C° 0 mm 8 mps 739 mmHg 30%
    22:00 +29°C° 0 mm 8 mps 739 mmHg 29%
    23:00 +29°C° 0 mm 8 mps 739 mmHg 27%

    27 August, Tuesday

    Time Temperature Precipitation Wind Pressure Humidity
    00:00 +31°C° 0 mm 9 mps 739 mmHg 26%
    01:00 +29°C° 0 mm 8 mps 739 mmHg 27%
    02:00 +29°C° 0 mm 8 mps 739 mmHg 28%
    03:00 +28°C° 0 mm 8 mps 739 mmHg 29%
    04:00 +28°C° 0 mm 9 mps 740 mmHg 33%
    05:00 +28°C° 0 mm 9 mps 740 mmHg 36%
    06:00 +27°C° 0 mm 10 mps 741 mmHg 40%
    07:00 +28°C° 0 mm 11 mps 741 mmHg 38%
    08:00 +29°C° 0 mm 13 mps 741 mmHg 37%
    09:00 +31°C° 0 mm 15 mps 742 mmHg 36%
    10:00 +31°C° 0 mm 15 mps 742 mmHg 35%
    11:00 +32°C° 0 mm 15 mps 742 mmHg 35%
    12:00 +32°C° 0 mm 15 mps 742 mmHg 35%
    13:00 +31°C° 0 mm 15 mps 742 mmHg 36%
    14:00 +31°C° 0 mm 14 mps 741 mmHg 37%
    15:00 +29°C° 0 mm 14 mps 741 mmHg 38%
    16:00 +28°C° 0 mm 14 mps 741 mmHg 41%
    17:00 +27°C° 0 mm 13 mps 741 mmHg 45%
    18:00 +26°C° 0 mm 13 mps 742 mmHg 48%
    19:00 +26°C° 0 mm 13 mps 742 mmHg 49%
    20:00 +24°C° 0 mm 13 mps 742 mmHg 49%
    21:00 +24°C° 0 mm 13 mps 742 mmHg 50%
    22:00 +24°C° 0 mm 12 mps 742 mmHg 50%
    23:00 +23°C° 0 mm 12 mps 742 mmHg 51%
    Show more